This demonstration page uses our WeatherBlox Daily Observations layout. Learn more.

Left ArrowRight Arrow

38.20091, -84.87328

Hourly Observations for February 6, 2022

Temp ( °F °C ) Dew Point ( °F °C ) Humidity (%) Winds ( mph kmh ) Pressure ( in mb ) Visibility ( mi km ) Precip ( " mm )
12:53 am 00:53 Clear 20 -6.7 16 -8.9 85 85 ESE 3 6 30.41 1030 7 11 0.00 0.00
1:53 am 01:53 Clear 18 -7.8 15 -9.4 88 88 Calm 30.39 1029 7 11 0.00 0.00
2:53 am 02:53 Clear with Mist and Fog 17 -8.3 14 -10 88 88 Calm 30.39 1029 6 10 0.00 0.00
3:53 am 03:53 Clear with Mist and Fog 16 -8.9 12 -11.1 84 84 Calm 30.39 1029 6 10 0.00 0.00
4:53 am 04:53 Clear 15 -9.4 11 -11.7 84 84 Calm 30.39 1029 7 11 0.00 0.00
5:53 am 05:53 Clear 14 -10 11 -11.7 88 88 Calm 30.39 1029 7 11 0.00 0.00
6:53 am 06:53 Clear with Mist and Fog 16 -8.9 13 -10.6 88 88 Calm 30.39 1029 5 8 0.00 0.00
7:53 am 07:53 Sunny with Mist and Fog 15 -9.4 11 -11.7 84 84 Calm 30.39 1029 5 8 0.00 0.00
8:53 am 08:53 Sunny 22 -5.6 18 -7.8 85 85 SSE 7 11 30.38 1029 7 11 0.00 0.00
9:53 am 09:53 Sunny 27 -2.8 21 -6.1 78 78 SSE 6 9 30.37 1029 10 16 0.00 0.00
10:53 am 10:53 Sunny 33 0.6 22 -5.6 64 64 S 9 15 30.35 1028 10 16 0.00 0.00
11:53 am 11:53 Sunny 37 2.8 24 -4.4 59 59 S 6 9 30.35 1028 10 16 0.00 0.00
12:53 pm 12:53 Sunny 40 4.4 27 -2.8 60 60 SW 8 13 30.32 1027 10 16 0.00 0.00
1:53 pm 13:53 Sunny 43 6.1 25 -3.9 49 49 WSW 10 17 30.29 1026 10 16 0.00 0.00
2:53 pm 14:53 Sunny 43 6.1 26 -3.3 51 51 SW 10 17 30.28 1025 10 16 0.00 0.00
3:53 pm 15:53 Sunny 43 6.1 25 -3.9 49 49 SSW 6 9 30.27 1025 10 16 0.00 0.00
4:53 pm 16:53 Sunny 43 6.1 26 -3.3 51 51 SW 6 9 30.27 1025 10 16 0.00 0.00
5:53 pm 17:53 Sunny 41 5 26 -3.3 55 55 S 6 9 30.24 1024 10 16 0.00 0.00
6:53 pm 18:53 Clear 33 0.6 27 -2.8 78 78 Calm 30.25 1024 10 16 0.00 0.00
7:53 pm 19:53 Clear 30 -1.1 26 -3.3 85 85 Calm 30.27 1025 10 16 0.00 0.00
8:53 pm 20:53 Clear 29 -1.7 25 -3.9 85 85 Calm 30.26 1025 10 16 0.00 0.00
9:53 pm 21:53 Clear 27 -2.8 24 -4.4 89 89 Calm 30.26 1025 10 16 0.00 0.00
10:53 pm 22:53 Clear 26 -3.3 23 -5 88 88 Calm 30.26 1025 10 16 0.00 0.00
11:53 pm 23:53 Clear 25 -3.9 23 -5 92 92 Calm 30.25 1025 10 16 0.00 0.00

Powered by AerisWeather